{"data":{"norad_id":58055,"epoch":"2026-05-25T04:35:57.723648Z","epoch_age_seconds":48658,"freshness":"FRESH","line1":"1 58055U 23158E   26145.19164032 -.00000556  00000+0 -10686-4 0  9998","line2":"2 58055  42.9953 314.6979 0000468  62.0294 298.0605 15.27573405145275","mean_motion":15.27573405,"eccentricity":4.68e-5,"inclination_deg":42.9953,"raan_deg":314.6979,"arg_perigee_deg":62.0294,"mean_anomaly_deg":298.0605,"bstar":-1.0686e-5,"rev_number":14527,"period_min":94.267155691939,"perigee_km":482.74773947974,"apogee_km":483.38994834673,"semimajor_km":6861.2058439132,"source":"CELESTRAK","updated_at":"2026-05-25T13:38:18.499464Z"}}